Weather History for Berlin, NH

Change the Weather History Date:

Friday, December 2, 2011

  Actual Average Record
Temperature  
Mean Temperature 28 °F -  
Max Temperature 37 °F 33 °F 50 °F (2012)
Min Temperature 19 °F 17 °F -4 °F (2002)
Degree Days  
Heating Degree Days 37    
Moisture  
Dew Point 26 °F    
Average Humidity 82    
Maximum Humidity 92    
Minimum Humidity 62    
Precipitation  
Precipitation 0.00 in - - ()
Sea Level Pressure  
Sea Level Pressure 30.32 in    
Wind  
Wind Speed 1 mph (NNW)    
Max Wind Speed 8 mph    
Max Gust Speed -    
Visibility 9 miles    
Events Snow    
Averages and records for this station are not official NWS values.
T = Trace of Precipitation, MM = Missing Value Source: NWS Daily Summary

Daily Weather History Graph

Daily Weather History Graph

Search for Another Location

Airport:

Trip Planner

Search our weather history database for the weather conditions in past years. The results will help you decide how hot, cold, wet, or windy it might be!

Date:

Astronomy

Dec. 02, 2011 Rise Set
Actual Time 7:02 AM EST 4:05 PM EST
Civil Twilight 6:29 AM EST 4:38 PM EST
Nautical Twilight 5:52 AM EST 5:15 PM EST
Astronomical Twilight 5:17 AM EST 5:50 PM EST
Moon 11:58 AM EST (12/2) No Moon Set
Length of Visible Light 10h 09m
Length of Day
9h 03m
First Quarter, 53% of the Moon is Illuminated
Dec 2
First Quarter
Dec 10
Full
Dec 17
Last Quarter
Dec 24
New
Jan 1
First Quarter

Hourly Weather History & Observations

Time (EST) Temp. Windchill Dew Point Humidity Pressure Visibility Wind Dir Wind Speed Gust Speed Precip Events Conditions
12:52 AM 21.0 °F - 18.0 °F 88% 30.30 in 10.0 mi Calm Calm - N/A   Clear
1:52 AM 19.0 °F - 17.1 °F 92% 30.30 in 10.0 mi Calm Calm - N/A   Clear
2:52 AM 19.9 °F - 17.1 °F 89% 30.30 in 10.0 mi Calm Calm - N/A   Mostly Cloudy
3:52 AM 19.0 °F - 17.1 °F 92% 30.29 in 10.0 mi Calm Calm - N/A   Clear
4:52 AM 23.0 °F - 21.0 °F 92% 30.29 in 10.0 mi Calm Calm - N/A   Overcast
7:52 AM 21.0 °F - 18.0 °F 88% 30.30 in 10.0 mi Calm Calm - N/A   Clear
8:52 AM 27.0 °F 23.0 °F 21.9 °F 81% 30.30 in 10.0 mi NNW 3.5 mph - 0.00 in   Clear
10:52 AM 33.1 °F - 25.0 °F 72% 30.27 in 10.0 mi Calm Calm - N/A   Clear
11:52 AM 36.0 °F - 24.1 °F 62% 30.25 in 10.0 mi Calm Calm - N/A   Mostly Cloudy
12:52 PM 37.0 °F 34.5 °F 25.0 °F 62% 30.24 in 10.0 mi NNW 3.5 mph - N/A   Mostly Cloudy
1:52 PM 37.0 °F - 25.0 °F 62% 30.25 in 10.0 mi Calm Calm - N/A   Overcast
2:52 PM 36.0 °F 32.1 °F 27.0 °F 70% 30.26 in 10.0 mi SE 4.6 mph - N/A   Overcast
3:52 PM 36.0 °F 32.1 °F 28.9 °F 76% 30.28 in 10.0 mi South 4.6 mph - N/A   Overcast
4:21 PM 35.6 °F - 30.2 °F 81% 30.24 in 9.0 mi Calm Calm - 0.00 in   Overcast
4:52 PM 34.0 °F 28.8 °F 30.0 °F 85% 30.30 in 9.0 mi North 5.8 mph - 0.00 in   Overcast
5:04 PM 33.8 °F 29.6 °F 30.2 °F 87% 30.26 in 2.5 mi North 4.6 mph - 0.00 in Snow Light Snow
5:13 PM 33.8 °F 30.8 °F 30.2 °F 87% 30.26 in 5.0 mi North 3.5 mph - 0.00 in Snow Light Snow
5:52 PM 34.0 °F - 30.0 °F 85% 30.33 in 10.0 mi Calm Calm - 0.00 in   Overcast
6:27 PM 33.8 °F - 30.2 °F 87% 30.29 in 10.0 mi Calm Calm - N/A   Overcast
6:52 PM 32.0 °F - 30.0 °F 92% 30.35 in 10.0 mi Calm Calm - N/A   Overcast
7:33 PM 33.8 °F - 30.2 °F 87% 30.32 in 10.0 mi Calm Calm - N/A   Overcast
7:52 PM 33.1 °F - 30.0 °F 89% 30.38 in 10.0 mi Calm Calm - N/A   Overcast
8:52 PM 35.1 °F 28.6 °F 28.9 °F 78% 30.40 in 6.0 mi WNW 8.1 mph - 0.00 in Snow Light Snow
9:52 PM 34.0 °F - 28.9 °F 82% 30.43 in 10.0 mi Calm Calm - 0.00 in   Overcast
10:37 PM 33.8 °F - 28.4 °F 81% 30.40 in 10.0 mi Calm Calm - N/A   Overcast
11:29 PM 33.8 °F - 28.4 °F 81% 30.43 in 10.0 mi Calm Calm - 0.00 in   Overcast
11:38 PM 33.8 °F - 28.4 °F 81% 30.44 in 10.0 mi Calm Calm - 0.00 in   Overcast
11:52 PM 34.0 °F 29.8 °F 28.0 °F 79% 30.48 in 10.0 mi NNW 4.6 mph - 0.00 in   Overcast